EW2972 Weather Reports


time (UTC)temp
F
wind
direction
speed
knots
gust
knots
rain 1hr
in
rain 24hr
in
rain mn
in
humidity
%
barometer
mb
20260509185424 84 188 2.6 7.8 0.00 0.00 0.00 59 987.3
20260509184923 85 302 3.5 7.8 0.00 0.00 0.00 57 987.3
20260509184426 85 25 4.3 8.7 0.00 0.00 0.00 56 987.4
20260509183920 85 56 4.3 8.7 0.00 0.00 0.00 56 987.5
20260509183419 85 55 3.5 7.0 0.00 0.00 0.00 59 987.5
20260509182919 84 339 3.5 8.7 0.00 0.00 0.00 57 987.5
20260509182420 84 9 4.3 8.7 0.00 0.00 0.00 55 987.4
20260509181915 84 350 3.5 9.6 0.00 0.00 0.00 56 987.6
20260509181413 84 5 4.3 9.6 0.00 0.00 0.00 60 987.5
20260509180911 84 55 5.2 8.7 0.00 0.00 0.00 59 987.7
20260509180423 84 0 3.5 8.7 0.00 0.00 0.00 57 987.8
20260509175907 83 55 4.3 3.5 0.00 0.00 0.00 61 987.7
20260509175410 84 55 4.3 8.7 0.00 0.00 0.00 61 987.9
20260509174956 83 17 2.6 7.0 0.00 0.00 0.00 64 987.9
20260509174951 82 14 3.5 7.8 0.00 0.00 0.00 64 987.9
20260509174902 84 55 3.5 8.7 0.00 0.00 0.00 61 987.8
20260509173347 83 11 3.5 7.8 0.00 0.00 0.00 61 988.0
20260509173029 82 17 3.5 7.0 0.00 0.00 0.00 63 988.0
20260509172909 82 302 3.5 7.8 0.00 0.00 0.00 63 988.1
20260509172359 82 335 2.6 7.0 0.00 0.00 0.00 67 987.9
20260509171340 81 302 3.5 7.0 0.00 0.00 0.00 63 988.1
20260509170839 82 32 2.6 7.0 0.00 0.00 0.00 62 988.2
20260509170342 82 57 2.6 7.8 0.00 0.00 0.00 63 988.2
20260509165838 81 292 2.6 7.8 0.00 0.00 0.00 66 988.3
20260509165341 81 333 2.6 6.1 0.00 0.00 0.00 66 988.2
20260509164836 81 306 2.6 7.0 0.00 0.00 0.00 63 988.3
20260509164338 80 31 2.6 7.0 0.00 0.00 0.00 62 988.3
20260509163836 80 12 2.6 7.8 0.00 0.00 0.00 67 988.4
20260509163548 80 35 3.5 7.0 0.00 0.00 0.00 62 988.5
20260509163449 80 311 4.3 7.8 0.00 0.00 0.00 63 988.5
20260509163356 80 292 2.6 7.8 0.00 0.00 0.00 64 988.4
20260509161832 80 310 4.3 7.8 0.00 0.00 0.00 65 988.5
20260509161612 79 345 4.3 9.6 0.00 0.00 0.00 66 988.5
20260509161400 79 280 4.3 8.7 0.00 0.00 0.00 65 988.5
20260509160333 79 290 4.3 9.6 0.00 0.00 0.00 66 988.5
20260509155831 79 308 4.3 7.8 0.00 0.00 0.00 65 988.5
20260509155328 79 263 3.5 7.8 0.00 0.00 0.00 68 988.5
20260509154823 78 296 4.3 8.7 0.00 0.00 0.00 67 988.5
20260509154320 78 280 3.5 8.7 0.00 0.00 0.00 68 988.5
20260509153820 78 281 4.3 8.7 0.00 0.00 0.00 69 988.4
20260509153553 78 284 4.3 8.7 0.00 0.00 0.00 70 988.2
20260509153354 78 258 5.2 8.7 0.00 0.00 0.00 68 988.4
20260509152820 78 298 4.3 8.7 0.00 0.00 0.00 68 988.3
20260509151818 77 254 3.5 7.8 0.00 0.00 0.00 68 988.4
20260509151317 77 257 4.3 7.8 0.00 0.00 0.00 70 988.4
20260509151249 77 292 4.3 7.8 0.00 0.00 0.00 70 988.4
20260509150643 76 291 5.2 8.7 0.00 0.00 0.00 73 988.4
20260509150513 76 303 4.3 8.7 0.00 0.00 0.00 73 988.3
20260509150326 77 316 4.3 8.7 0.00 0.00 0.00 70 988.4
20260509144819 76 297 3.5 8.7 0.00 0.00 0.00 73 988.4
20260509144314 76 293 3.5 7.0 0.00 0.00 0.00 74 988.4
20260509144156 76 355 4.3 7.8 0.00 0.00 0.00 73 988.2
20260509143936 76 287 4.3 7.0 0.00 0.00 0.00 74 988.3
20260509143341 76 324 4.3 7.0 0.00 0.00 0.00 73 988.2
20260509142814 76 307 4.3 7.8 0.00 0.00 0.00 73 988.4
20260509141800 75 321 4.3 7.0 0.00 0.00 0.00 77 988.3
20260509141301 75 284 3.5 7.8 0.00 0.00 0.00 78 988.3
20260509140800 75 315 3.5 7.8 0.00 0.00 0.00 77 988.4
20260509140259 74 310 4.3 7.0 0.00 0.00 0.00 80 988.4
20260509135749 73 294 5.2 8.7 0.00 0.00 0.00 80 988.3
20260509135358 72 265 4.3 8.7 0.00 0.00 0.00 81 988.3
20260509135253 73 290 5.2 8.7 0.00 0.00 0.00 81 988.3
20260509134246 72 280 3.5 7.0 0.00 0.00 0.00 83 988.1
20260509133747 71 294 4.3 7.0 0.00 0.00 0.00 83 988.1
20260509133246 71 267 3.5 7.0 0.00 0.00 0.00 84 988.1
20260509132741 70 250 4.3 7.8 0.00 0.00 0.00 83 988.1
20260509132244 70 291 4.3 7.8 0.00 0.00 0.00 84 988.1
20260509131742 70 296 4.3 7.8 0.00 0.00 0.00 84 988.0
20260509131239 70 289 4.3 6.1 0.00 0.00 0.00 83 988.1
20260509130737 69 257 3.5 7.8 0.00 0.00 0.00 84 988.2
20260509130238 69 261 3.5 7.8 0.00 0.00 0.00 84 988.1
20260509125743 69 296 3.5 6.1 0.00 0.00 0.00 85 988.1
20260509125239 68 300 2.6 6.1 0.00 0.00 0.00 86 988.1
20260509124740 68 286 2.6 6.1 0.00 0.00 0.00 87 988.1
20260509124251 67 287 2.6 6.1 0.00 0.00 0.00 89 987.9
20260509124239 68 269 2.6 6.1 0.00 0.00 0.00 87 987.9
20260509123240 67 268 2.6 6.1 0.00 0.00 0.00 89 988.0
20260509122740 67 261 2.6 6.1 0.00 0.00 0.00 90 988.0
20260509122236 67 269 2.6 6.1 0.00 0.00 0.00 90 987.8
20260509121737 67 271 3.5 6.1 0.00 0.00 0.00 90 987.8
20260509121234 67 259 3.5 6.1 0.00 0.00 0.00 91 988.0
20260509120735 67 288 3.5 6.1 0.00 0.00 0.00 91 987.8
20260509120231 67 257 3.5 6.1 0.00 0.00 0.00 91 987.9
20260509115742 67 261 2.6 6.1 0.00 0.00 0.00 91 987.8
20260509115248 67 261 2.6 5.2 0.00 0.00 0.00 91 987.7
20260509115226 67 257 2.6 4.3 0.00 0.00 0.00 91 987.7
20260509114226 67 267 2.6 5.2 0.00 0.00 0.00 91 987.6
20260509113723 67 284 3.5 5.2 0.00 0.03 0.00 91 987.5
20260509113229 67 252 2.6 5.2 0.00 0.04 0.00 91 987.4
20260509112721 67 283 2.6 5.2 0.00 0.08 0.00 91 987.3
20260509112229 67 266 2.6 4.3 0.00 0.09 0.00 91 987.4
20260509111726 67 238 2.6 6.1 0.00 0.13 0.00 91 987.4
20260509111223 67 220 3.5 6.1 0.00 0.15 0.00 91 987.4
20260509110716 67 232 2.6 5.2 0.00 0.15 0.00 91 987.3
20260509110220 67 273 1.7 3.5 0.00 0.15 0.00 91 986.8
20260509105712 67 283 2.6 4.3 0.00 0.15 0.00 91 986.6
20260509105212 67 330 3.5 6.1 0.00 0.15 0.00 91 986.4
20260509104711 67 355 3.5 7.0 0.00 0.15 0.00 91 986.3
20260509104206 67 313 2.6 7.0 0.00 0.15 0.00 91 986.4
20260509103717 67 331 1.7 3.5 0.00 0.15 0.00 91 986.4
20260509103705 67 333 1.7 4.3 0.00 0.15 0.00 91 986.4
20260509102707 67 321 1.7 3.5 0.00 0.15 0.00 91 986.5
20260509102205 67 325 1.7 3.5 0.00 0.15 0.00 91 986.6
20260509101704 67 304 1.7 2.6 0.00 0.15 0.00 91 986.6
20260509101203 67 303 1.7 2.6 0.00 0.15 0.00 91 986.6
20260509100658 67 321 0.9 2.6 0.00 0.15 0.00 91 986.5
20260509100201 67 334 0.9 3.5 0.00 0.15 0.00 91 986.2
20260509095658 67 336 1.7 3.5 0.00 0.15 0.00 91 985.9
20260509095156 67 331 1.7 3.5 0.00 0.21 0.00 91 985.8
20260509094652 67 313 1.7 3.5 0.00 0.23 0.00 90 985.7
20260509094150 67 321 2.6 4.3 0.00 0.24 0.00 90 985.7
20260509093640 68 5 3.5 6.1 0.00 0.24 0.00 90 985.6
20260509093138 68 5 4.3 6.1 0.00 0.24 0.00 90 985.3
20260509092728 68 53 4.3 9.6 0.00 0.24 0.00 89 985.1
20260509092648 68 31 4.3 9.6 0.00 0.24 0.00 90 985.3
20260509091631 68 23 4.3 9.6 0.00 0.24 0.00 89 985.2
20260509091136 68 46 6.1 9.6 0.00 0.24 0.00 89 985.2
20260509090636 68 30 6.1 9.6 0.00 0.24 0.00 89 985.3
20260509090531 68 28 8.7 13.9 0.00 0.24 0.00 88 985.2
20260509090147 68 53 7.0 11.3 0.00 0.24 0.00 88 985.1
20260509085633 68 27 7.8 13.0 0.00 0.24 0.00 88 985.1
20260509084714 69 39 8.7 15.6 0.00 0.24 0.00 88 985.1
20260509084639 69 18 9.6 15.6 0.00 0.24 0.00 88 985.3
20260509083631 69 10 8.7 12.2 0.00 0.24 0.00 87 985.2
20260509083123 69 306 7.8 12.2 0.00 0.24 0.00 86 985.1
20260509082624 71 306 7.8 12.2 0.00 0.24 0.00 81 985.0
20260509082120 71 314 7.0 12.2 0.00 0.24 0.00 79 984.9
20260509081621 70 317 5.2 11.3 0.00 0.24 0.00 79 984.7
20260509081117 70 301 5.2 13.9 0.00 0.24 0.00 82 984.8
20260509080616 70 277 7.8 17.4 0.00 0.24 0.00 84 984.7
20260509080113 70 288 7.0 17.4 0.00 0.24 0.00 85 984.9
20260509075611 70 194 5.2 9.6 0.00 0.24 0.00 85 983.9
20260509075156 70 154 6.1 15.6 0.00 0.24 0.00 85 984.2
20260509075125 70 186 4.3 9.6 0.00 0.24 0.00 85 983.9
20260509074107 71 178 8.7 20.0 0.00 0.24 0.00 84 984.3
20260509073609 71 182 8.7 20.0 0.00 0.24 0.00 84 984.2
20260509073106 70 200 8.7 16.5 0.00 0.24 0.00 85 984.3
20260509072600 70 182 9.6 16.5 0.00 0.24 0.00 86 984.6
20260509072209 70 201 9.6 14.8 0.00 0.24 0.00 87 985.5
20260509072122 70 207 9.6 16.5 0.00 0.24 0.00 86 985.0
20260509071604 70 165 9.6 15.6 0.00 0.24 0.00 87 985.3
20260509070600 70 188 9.6 14.8 0.00 0.24 0.00 87 985.6
20260509070323 69 187 8.7 14.8 0.00 0.24 0.00 87 986.0
20260509070119 69 218 8.7 13.9 0.00 0.24 0.00 87 985.6
20260509065049 69 225 7.8 14.8 0.00 0.24 0.00 87 986.1
20260509064549 69 192 7.8 13.9 0.00 0.24 0.00 88 986.3
20260509064049 69 215 7.8 13.0 0.00 0.24 0.00 88 986.3
20260509063557 69 194 7.8 12.2 0.00 0.24 0.00 88 986.3
20260509063053 68 202 7.8 12.2 0.00 0.24 0.00 88 986.5
20260509062544 68 211 7.0 12.2 0.00 0.24 0.00 88 986.7
20260509062050 68 198 7.0 12.2 0.00 0.24 0.00 88 987.1
20260509061543 68 185 7.0 11.3 0.00 0.24 0.00 89 987.3
20260509061338 67 209 2.6 6.1 0.00 0.24 0.00 89 987.6
20260509061315 67 238 5.2 8.7 0.00 0.24 0.00 89 988.0
20260509061112 68 218 6.1 11.3 0.00 0.24 0.00 89 987.7
20260509060544 67 208 4.3 8.7 0.00 0.24 0.00 89 987.5
20260509055613 67 194 5.2 8.7 0.00 0.24 0.00 89 987.5
20260509055215 67 205 3.5 7.0 0.00 0.24 0.00 90 987.4
20260509054051 67 203 1.7 3.5 0.00 0.24 0.00 88 987.7
20260509053543 67 165 1.7 3.5 0.00 0.24 0.00 88 987.4
20260509053037 67 190 1.7 3.5 0.00 0.24 0.00 88 987.6
20260509053019 67 178 1.7 3.5 0.00 0.24 0.00 88 987.4
20260509052034 67 207 1.7 3.5 0.00 0.24 0.00 88 987.5
20260509051532 67 196 1.7 3.5 0.00 0.24 0.00 87 987.7
20260509051033 68 202 2.6 5.2 0.00 0.24 0.00 86 987.7
20260509050541 68 198 2.6 5.2 0.00 0.24 0.00 86 987.6
20260509050033 68 153 2.6 5.2 0.00 0.24 0.00 86 987.6
20260509045533 69 190 2.6 4.3 0.00 0.24 0.24 85 987.9
20260509045032 69 196 1.7 3.5 0.00 0.24 0.24 85 988.1
20260509044533 69 249 1.7 5.2 0.00 0.24 0.24 85 988.8
20260509044034 68 218 3.5 8.7 0.00 0.24 0.24 86 989.0
20260509043524 68 320 6.1 11.3 0.00 0.24 0.24 87 989.3
20260509043020 67 313 8.7 11.3 0.00 0.24 0.24 88 989.1
20260509042521 67 306 0.9 4.3 0.00 0.24 0.24 90 989.2
20260509042442 66 306 0.9 4.3 0.00 0.24 0.24 86 989.1
20260509041510 66 302 0.0 4.3 0.00 0.24 0.24 86 987.9
20260509041010 67 127 0.0 1.7 0.00 0.24 0.24 88 987.5
20260509040511 67 127 0.9 3.5 0.00 0.24 0.24 89 987.4
20260509040010 67 30 2.6 4.3 0.00 0.24 0.24 87 987.4
20260509035512 67 28 1.7 4.3 0.00 0.24 0.24 85 987.6
20260509035011 69 87 0.0 1.7 0.00 0.24 0.24 85 987.3
20260509034512 69 155 0.9 4.3 0.00 0.24 0.24 84 986.9
20260509034010 69 155 2.6 4.3 0.00 0.24 0.24 84 986.8
20260509033511 69 152 2.6 6.1 0.00 0.24 0.24 84 986.7
20260509033008 69 153 3.5 7.0 0.00 0.24 0.24 84 986.6
20260509032509 69 152 3.5 7.0 0.00 0.24 0.24 83 986.7
20260509032144 70 134 4.3 8.7 0.00 0.24 0.24 83 986.5
20260509032038 69 148 4.3 8.7 0.00 0.24 0.24 83 986.5
20260509031001 70 121 4.3 8.7 0.00 0.24 0.24 83 986.6
20260509030502 70 144 4.3 8.7 0.00 0.24 0.24 82 986.5
20260509030002 70 119 4.3 7.0 0.00 0.24 0.24 82 986.7
20260509025502 70 114 4.3 7.8 0.00 0.24 0.24 82 987.1
20260509025003 70 123 4.3 7.8 0.00 0.24 0.24 82 987.1
20260509024503 70 89 2.6 6.1 0.00 0.24 0.24 83 987.3
20260509023959 69 34 2.6 4.3 0.00 0.24 0.24 84 987.4
20260509023915 69 31 3.5 6.1 0.00 0.24 0.24 85 987.4
20260509022947 69 30 4.3 7.0 0.00 0.24 0.24 85 987.3
20260509022450 68 24 3.5 7.0 0.00 0.24 0.24 85 987.1
20260509021945 69 28 3.5 4.3 0.00 0.24 0.24 84 986.8
20260509021452 69 42 3.5 6.1 0.00 0.24 0.24 82 986.3
20260509020946 70 84 3.5 7.8 0.00 0.24 0.24 82 985.8
20260509020445 70 132 4.3 9.6 0.00 0.24 0.24 81 985.4
20260509015948 70 140 5.2 9.6 0.00 0.24 0.24 82 985.0
20260509015622 70 136 4.3 8.7 0.00 0.24 0.24 81 984.7
20260509015505 70 144 5.2 9.6 0.00 0.24 0.24 82 984.7
20260509014439 70 148 4.3 8.7 0.00 0.24 0.24 81 984.9
20260509013948 71 162 4.3 8.7 0.00 0.24 0.24 80 985.2
20260509013442 71 129 5.2 10.4 0.00 0.24 0.24 79 985.1
20260509013251 71 133 4.3 10.4 0.00 0.24 0.24 79 985.1
20260509013056 71 150 4.3 7.0 0.00 0.24 0.24 79 985.0
20260509012055 72 200 2.6 7.0 0.00 0.24 0.24 78 985.3
20260509011957 71 160 3.5 7.0 0.00 0.24 0.24 78 985.1
20260509010940 72 167 2.6 8.7 0.00 0.24 0.24 77 985.4
20260509010434 72 163 3.5 8.7 0.00 0.24 0.24 76 985.4
20260509005941 73 156 3.5 8.7 0.00 0.24 0.24 76 985.5
20260509005438 73 173 2.6 7.0 0.00 0.24 0.24 75 985.6
20260509004932 73 185 3.5 7.0 0.00 0.24 0.24 75 985.7
20260509004427 73 184 3.5 7.8 0.00 0.24 0.24 74 985.5
20260509003935 74 153 3.5 7.8 0.00 0.24 0.24 75 985.6
20260509003423 74 145 3.5 7.0 0.00 0.24 0.24 74 985.6
20260509002922 74 178 3.5 8.7 0.00 0.24 0.24 73 985.5
20260509002423 74 184 3.5 8.7 0.00 0.24 0.24 73 985.4
20260509001918 74 160 3.5 8.7 0.00 0.24 0.24 73 985.3
20260509001417 74 147 4.3 8.7 0.00 0.24 0.24 73 985.2
20260509000922 74 146 5.2 9.6 0.00 0.24 0.24 73 985.0
20260509000418 75 132 5.2 10.4 0.00 0.24 0.24 71 985.0
20260508235923 75 146 4.3 10.4 0.00 0.24 0.24 71 984.9
20260508235414 75 217 5.2 13.0 0.00 0.24 0.24 71 984.9
20260508235013 75 133 7.0 12.2 0.00 0.24 0.24 70 984.8
20260508234931 75 129 7.0 13.0 0.00 0.24 0.24 70 984.9
20260508233917 75 154 8.7 13.0 0.00 0.24 0.24 70 984.9
20260508233508 76 165 7.0 10.4 0.00 0.24 0.24 68 985.2
20260508233421 75 132 7.8 13.0 0.00 0.24 0.24 69 985.1
20260508232955 76 136 5.2 13.0 0.00 0.24 0.24 68 985.2
20260508232426 76 178 5.2 9.6 0.00 0.24 0.24 69 985.2
20260508231413 76 172 7.0 13.0 0.00 0.24 0.24 69 985.3
20260508230904 76 157 7.8 13.0 0.00 0.24 0.24 69 985.3
20260508230729 76 147 6.1 10.4 0.00 0.24 0.24 70 985.6
20260508230459 76 132 7.0 12.2 0.00 0.24 0.24 68 985.3
20260508225357 76 117 7.0 11.3 0.00 0.24 0.24 69 985.4
20260508225324 77 140 7.0 11.3 0.00 0.24 0.24 68 985.6
20260508225031 76 138 7.0 13.0 0.00 0.24 0.24 68 985.4
20260508224452 76 150 7.0 13.0 0.00 0.24 0.24 69 985.4
20260508223919 76 163 7.0 12.2 0.00 0.24 0.24 68 985.6
20260508222855 77 127 7.0 11.3 0.00 0.24 0.24 68 985.7
20260508222557 77 130 4.3 10.4 0.00 0.24 0.24 67 985.7
20260508222420 78 134 5.2 9.6 0.00 0.24 0.24 69 985.6
20260508221353 77 138 5.2 10.4 0.00 0.24 0.24 68 985.7
20260508220856 77 155 6.1 10.4 0.00 0.24 0.24 67 985.6
20260508220357 77 165 5.2 10.4 0.00 0.24 0.24 69 985.7
20260508215851 77 159 5.2 10.4 0.00 0.24 0.24 69 985.7
20260508215352 78 150 5.2 11.3 0.00 0.24 0.24 69 985.7
20260508214847 78 192 5.2 11.3 0.00 0.24 0.24 66 985.7
20260508214347 77 159 5.2 11.3 0.00 0.24 0.24 66 985.7
20260508213848 77 158 5.2 11.3 0.00 0.24 0.24 67 985.7
20260508213345 77 151 5.2 9.6 0.00 0.24 0.24 67 985.7
20260508212843 77 124 6.1 9.6 0.00 0.24 0.24 66 986.0
20260508212340 77 207 7.0 11.3 0.00 0.24 0.24 66 985.9
20260508211844 77 132 6.1 13.0 0.00 0.24 0.24 69 985.9
20260508211339 77 155 6.1 13.0 0.00 0.24 0.24 65 985.9
20260508210841 77 133 6.1 12.2 0.00 0.24 0.24 65 986.0
20260508210341 76 163 7.0 12.2 0.00 0.24 0.24 65 985.8
20260508205839 76 196 6.1 12.2 0.00 0.24 0.24 67 985.8
20260508205337 76 176 7.0 13.9 0.00 0.24 0.24 67 986.1
20260508205017 77 136 7.0 13.9 0.00 0.24 0.24 66 986.6
20260508204855 77 148 7.0 13.9 0.00 0.24 0.24 65 986.3
20260508203837 76 154 7.0 13.9 0.00 0.24 0.24 65 986.7
20260508203340 76 113 8.7 21.7 0.00 0.24 0.24 65 991.9
20260508202833 76 144 8.7 21.7 0.00 0.24 0.24 65 986.8
20260508202337 78 196 7.0 14.8 0.00 0.24 0.24 67 986.8
20260508201833 77 146 5.2 13.0 0.00 0.24 0.24 66 986.8
20260508201331 77 200 5.2 11.3 0.00 0.24 0.24 66 987.1
20260508200830 77 140 6.1 12.2 0.00 0.24 0.24 65 987.4
20260508200330 77 207 6.1 12.2 0.00 0.24 0.24 68 987.4
20260508195827 77 159 5.2 11.3 0.00 0.24 0.24 65 987.3
20260508195330 77 152 5.2 9.6 0.00 0.24 0.24 63 987.4
20260508194829 78 138 4.3 9.6 0.00 0.24 0.24 64 987.6
20260508194325 76 194 3.5 8.7 0.00 0.24 0.24 67 987.6
20260508193824 75 147 4.3 7.8 0.00 0.24 0.24 67 987.8
20260508193340 75 190 5.2 11.3 0.00 0.24 0.24 69 987.8
20260508192822 75 200 5.2 11.3 0.00 0.24 0.24 68 987.9
20260508192322 75 138 6.1 9.6 0.00 0.24 0.24 68 987.8
20260508191823 76 134 6.1 9.6 0.00 0.24 0.24 65 987.9
20260508191322 76 139 5.2 9.6 0.00 0.24 0.24 65 987.9
20260508191147 76 146 6.1 11.3 0.00 0.24 0.24 66 988.0
20260508191137 76 136 5.2 10.4 0.00 0.24 0.24 68 988.0
20260508190925 78 185 5.2 11.3 0.00 0.24 0.24 64 987.9